SCP
0 -0 -0 -0 -0 -0 -0 -0 -0 -0 0 0 0 0 0 0 0 0 0 0 0 0 0 0 0 0 0 0 0 0 0 0 0 0 0 0 0 0 0 0 0 0 0
-0 0 -0 -0 -0 -0 -0 -0 -0 -0 0 0 0 0 0 0 0 0 0 0 0 0 0 0 0 0 0 0 0 0 0 0 0 0 0 0 0 0 0 0 0 0 0
-0 0 -0 -0 -0 -0 -0 -0 0 0 0 0 0 0 0 0 0 0 0 0 0 0 0 0 0 0 0 0 0 0 0 0 0 0 0 0 0 0 0 0 0 0 0
-0 0 0 -0 -0 -0 -0 0 0 0 0 0 0 0 0 0 0 0 0 0 0 0 0 0 0 0 0 0 0 0 0 0 0 0 0 0 0 0 0 0 0 0 0
0 0 0 -0 -0 0 0 0 0 0 0 0 0 0 0 0 0 0 0 0 0 0 0 0 0 0 0 0 0 0 0 0 0 0 0 0 0 1 0 0 0 0 0
0 0 -0 -0 -0 0 0 0 0 0 0 0 0 0 0 0 0 0 0 0 0 0 0 0 0 0 0 0 0 0 0 0 0 0 0 0 0 0 0 0 0 0 0
0 0 0 0 0 0 0 0 0 0 0 0 0 0 0 0 0 0 0 0 0 0 0 0 0 0 0 0 0 0 0 0 0 0 0 0 0 0 1 0 0 0 1
0 0 0 0 0 0 0 0 0 0 0 0 0 0 0 0 0 0 0 0 0 0 0 0 0 0 0 0 0 0 0 0 0 0 0 0 0 0 1 1 0 0 0
0 0 0 0 0 0 0 0 0 0 0 0 0 0 0 0 0 0 0 0 0 0 0 0 0 0 0 0 0 0 0 0 0 0 0 0 0 0 1 1 0 0 1
0 0 0 0 0 0 0 0 0 0 0 0 0 0 0 0 0 0 0 0 0 0 0 0 0 0 0 0 0 0 0 0 0 0 0 0 0 0 1 0 0 0 0
0 0 0 0 0 0 0 0 0 0 0 -0 0 -0 0 0 0 0 0 0 0 0 0 0 -0 0 0 0 0 0 0 0 0 0 0 0 1 0 0 0 0 0 0
0 0 0 0 0 0 0 0 0 0 0 0 -0 -0 -0 0 0 0 0 0 0 0 0 0 -0 0 0 0 0 0 0 0 0 0 0 0 0 0 0 0 0 0 0
-0 0 0 0 0 0 0 0 0 0 0 0 -0 0 -0 -0 -0 0 0 0 0 0 0 0 0 0 0 0 0 0 0 0 0 0 0 0 0 0 0 0 0 0 -0
0 0 0 0 0 0 0 0 0 0 0 0 0 0 0 -0 -0 0 0 0 0 0 0 0 0 0 0 0 0 0 0 0 0 0 0 0 0 0 0 0 -0 -0 -0
0 0 0 0 0 0 0 0 0 0 0 0 0 0 0 0 0 0 0 0 0 0 0 0 0 0 0 0 0 0 0 0 0 0 0 0 -0 -0 -0 -0 -0 0 0
0 0 0 0 0 0 0 0 0 0 0 0 0 0 0 0 0 0 0 0 0 0 0 0 0 0 0 0 0 0 0 0 0 0 0 0 0 0 0 0 0 0 0
0 0 0 0 0 0 0 0 0 0 0 0 0 0 0 0 0 0 0 0 0 0 0 0 0 0 0 0 0 0 0 0 0 0 0 0 0 0 0 0 0 0 0
0 0 0 0 0 0 0 0 0 0 0 0 0 0 0 0 0 0 0 0 0 0 0 0 0 0 0 0 0 0 0 -0 0 0 0 0 0 0 0 0 0 0 0
0 0 0 0 0 0 0 0 0 0 0 0 0 0 0 0 0 0 0 0 0 0 0 0 0 0 0 0 0 0 0 0 -0 -0 -0 -0 0 0 0 0 0 0 0
0 0 0 0 0 0 0 0 0 0 0 0 0 0 0 0 0 0 0 0 0 0 0 0 0 0 0 0 0 0 0 0 0 0 -0 -0 -0 0 0 0 0 0 0
0 0 0 0 0 0 0 0 0 0 0 0 0 0 -0 0 0 0 0 0 0 0 0 0 0 0 -0 0 0 0 0 0 0 0 0 0 0 0 0 0 0 0 0
0 0 0 0 0 0 0 0 0 0 0 0 0 -0 0 0 0 0 0 0 0 0 0 0 0 0 0 0 0 0 -0 0 0 0 0 0 0 0 0 0 0 0 0
0 0 0 0 0 0 0 0 0 0 0 0 0 0 0 0 0 0 0 0 0 0 0 0 0 0 0 0 0 0 0 0 0 0 0 0 0 0 0 0 0 0 0
0 0 0 0 0 0 0 0 0 0 0 0 0 0 0 0 0 0 0 0 0 0 0 0 0 0 0 0 0 0 0 0 0 0 0 0 0 0 0 0 0 0 0
0 0 0 0 0 0 0 0 0 0 0 0 0 0 0 0 0 0 0 0 0 0 0 0 0 0 0 0 0 0 0 0 0 0 0 0 0 0 0 0 0 0 0
0 0 0 0 0 0 0 0 0 0 0 0 0 0 0 0 0 0 0 0 0 0 0 0 0 0 0 0 0 0 0 0 0 0 0 0 0 0 0 0 0 0 0
Wind_Speed_500mb
38 35 31 29 26 24 22 19 16 14 12 13 13 13 12 12 10 8 7 6 4 4 3 3 2 4 6 7 8 7 5 4 5 5 7 7 7 7 3 4 7 11 13
39 35 32 27 25 22 20 19 16 14 13 12 11 10 10 9 8 8 6 6 6 7 7 6 6 7 8 9 10 12 12 10 9 7 8 9 11 11 10 7 4 9 13
36 38 33 28 25 22 19 16 14 14 12 11 9 8 7 6 6 6 6 6 8 9 9 9 10 9 10 12 12 12 13 14 14 14 14 14 16 12 11 11 8 11 10
32 39 32 27 23 19 16 15 13 11 9 7 6 5 4 4 5 7 7 9 11 12 13 13 14 14 14 16 16 15 15 15 17 19 19 17 18 19 12 11 12 13 12
37 37 32 28 24 21 18 15 12 9 6 4 2 2 3 4 5 6 7 9 11 13 14 14 15 16 16 17 18 19 19 18 18 23 25 18 15 24 17 13 12 15 17
37 36 32 27 24 22 19 15 11 9 7 6 4 3 2 3 4 6 7 9 10 10 11 10 11 12 14 15 15 16 18 22 22 24 28 24 19 14 17 14 12 16 17
37 37 35 30 26 23 19 15 14 12 9 6 4 3 3 3 5 7 10 15 17 15 15 14 14 12 9 7 10 13 14 18 23 28 32 30 27 24 20 22 21 17 20
37 35 34 29 24 22 19 18 16 12 9 7 6 5 4 5 8 9 13 19 21 19 16 14 13 11 9 7 4 3 5 11 18 27 32 37 32 28 26 22 27 28 26
31 26 32 27 24 21 20 19 17 14 10 7 4 4 4 3 7 12 13 17 23 23 18 17 14 11 6 2 6 7 5 4 4 15 27 39 35 32 29 28 25 25 26
32 27 31 32 28 24 23 20 15 11 6 3 1 1 3 1 2 10 10 14 20 24 18 27 18 12 6 4 5 4 6 11 11 4 15 35 37 23 30 34 29 32 29
44 41 38 38 34 32 26 17 14 9 6 5 3 2 3 4 8 11 11 14 15 20 21 24 18 13 7 7 7 3 8 12 15 3 6 20 24 23 32 32 29 33 33
56 51 43 41 41 41 29 19 10 10 8 3 1 2 2 5 8 5 9 15 9 17 19 21 19 19 17 19 24 22 21 15 18 12 1 6 12 19 22 22 24 28 35
51 52 51 42 42 40 33 22 14 13 10 11 9 9 5 3 4 4 13 19 12 18 25 23 21 19 14 21 35 39 26 24 18 19 9 7 13 15 17 21 27 34 41
64 59 58 48 43 37 31 24 13 14 15 16 18 11 10 8 7 11 17 23 22 24 21 33 33 28 28 25 32 46 23 16 22 28 31 28 27 28 29 31 37 41 40
73 62 61 55 47 39 37 25 17 19 21 18 23 15 19 17 16 24 25 25 30 23 29 31 27 22 24 26 38 36 20 20 26 24 24 26 36 41 43 48 46 31 26
70 74 60 59 51 40 34 27 22 18 17 17 18 20 26 26 29 32 26 26 23 34 33 31 26 32 33 37 36 29 31 35 36 40 36 32 33 30 31 32 32 28 32
68 71 55 60 54 52 41 39 38 37 29 25 26 29 28 30 36 39 31 26 19 18 28 35 39 36 41 40 37 33 38 42 41 36 35 42 43 46 40 33 29 30 30
49 63 55 54 55 57 46 48 47 38 31 31 27 37 35 34 36 39 33 25 27 26 33 29 34 41 50 48 45 48 46 51 48 48 50 45 43 50 51 41 37 32 38
53 54 52 41 43 41 48 42 39 32 33 29 25 30 31 35 33 38 35 30 30 31 36 39 40 42 50 49 45 48 51 56 59 54 58 52 45 39 37 43 41 41 40
44 54 35 36 36 45 41 34 25 27 28 23 24 30 30 45 41 35 34 34 34 31 30 33 40 26 37 46 49 49 49 50 56 62 64 59 61 62 53 47 49 43 39
51 53 54 22 53 45 37 33 26 22 26 28 23 45 40 49 48 37 39 38 36 38 34 36 36 30 32 32 46 52 56 58 51 53 59 68 65 59 61 53 48 43 43
62 60 45 17 42 45 38 36 26 23 33 51 48 29 36 39 38 37 38 39 44 43 37 43 42 38 36 34 40 50 48 58 52 29 22 30 45 57 56 50 52 43 42
44 32 24 14 38 39 38 27 20 21 4 25 23 33 47 36 40 38 39 42 45 43 47 47 51 43 36 39 34 40 29 23 46 58 44 39 28 24 33 49 44 38 36
27 20 14 22 22 26 20 16 17 26 10 12 18 14 22 20 27 37 41 42 41 41 50 47 51 47 43 47 45 43 41 45 39 47 50 42 35 23 23 29 41 38 35
26 21 10 21 22 25 17 5 9 4 8 14 22 23 31 32 38 43 45 34 39 37 45 41 44 48 51 50 49 49 53 47 44 42 58 53 40 33 33 30 35 42 37
24 12 8 13 13 11 14 4 4 12 16 27 33 42 40 40 51 55 59 58 48 45 46 50 53 52 54 52 51 50 49 45 45 42 44 50 49 42 33 35 48 39 42
Wind_Direction_500mb
188 180 169 167 166 166 162 158 156 155 155 153 161 157 160 161 169 181 184 198 217 236 238 211 231 256 257 248 237 238 231 215 221 182 157 155 137 125 140 182 158 138 137
175 178 171 169 169 165 162 162 159 156 152 151 152 150 156 160 170 184 204 220 237 255 268 272 260 258 260 261 247 237 233 225 212 214 193 186 164 157 170 214 273 176 160
185 178 175 170 165 163 159 150 150 153 156 155 149 156 158 167 185 207 225 237 253 258 258 261 262 254 251 251 250 245 236 225 220 206 189 181 186 179 183 194 223 229 188
185 180 174 167 166 164 164 165 164 168 168 165 167 172 199 220 240 247 255 266 271 271 273 271 269 263 260 254 251 248 240 227 217 206 190 197 221 213 208 191 205 219 223
178 177 174 173 174 174 174 174 177 178 177 182 194 203 230 249 254 264 275 279 286 289 285 282 278 275 263 255 251 248 245 236 220 211 206 215 222 219 219 211 202 216 225
184 181 181 179 177 178 179 181 179 171 155 137 120 95 75 46 19 7 2 359 347 331 317 310 297 282 277 272 263 251 237 231 224 217 207 208 204 242 242 229 228 231 232
188 186 188 182 181 180 178 179 170 159 149 142 123 101 78 56 55 45 52 23 2 346 337 336 332 329 325 299 271 264 255 237 222 218 207 208 223 213 255 255 256 259 241
192 187 187 186 186 184 180 175 167 160 147 128 123 124 123 111 82 69 55 26 15 4 350 340 332 324 322 332 358 5 292 249 230 219 216 209 226 213 240 263 264 260 256
184 193 196 197 192 188 183 174 165 158 151 148 139 170 170 130 95 75 36 33 26 15 15 15 3 347 333 95 76 36 11 316 239 227 223 211 223 221 229 249 267 271 262
193 188 185 191 191 187 179 169 167 161 151 108 318 188 210 245 72 39 34 29 26 14 20 22 16 27 32 87 3 42 40 30 357 308 209 207 216 230 226 233 250 267 271
200 199 197 195 185 177 171 172 172 173 155 83 154 306 244 320 339 359 14 11 4 10 4 4 7 15 356 324 342 283 327 347 356 340 200 210 221 221 225 233 239 251 263
205 203 206 201 188 177 183 180 185 190 189 145 278 216 184 312 337 13 343 346 326 346 340 334 350 340 331 330 323 316 290 301 340 338 289 185 212 221 228 242 253 258 264
214 207 205 202 193 191 191 188 201 212 211 220 225 225 218 253 311 256 309 319 316 312 324 319 322 313 291 310 323 334 293 275 312 308 297 222 238 247 272 274 273 275 277
219 219 208 203 203 200 196 195 212 212 228 230 232 225 231 237 268 298 290 291 288 290 302 303 297 292 285 300 312 316 296 284 298 294 291 282 272 274 281 285 288 289 288
217 225 217 204 204 206 201 195 205 211 222 237 239 233 238 240 274 280 274 272 282 287 289 289 307 286 279 290 301 305 290 287 288 295 306 295 281 282 287 289 287 286 295
221 222 224 210 212 203 206 202 207 212 208 239 260 285 281 261 276 285 262 289 269 283 275 285 292 286 282 289 292 289 292 292 287 276 284 293 293 292 300 303 284 274 284
233 223 218 209 202 198 194 200 210 224 234 248 263 273 278 276 277 284 272 282 273 259 271 285 280 287 290 294 280 273 276 279 284 285 279 280 285 280 287 289 302 270 283
227 200 192 194 199 205 207 223 228 234 239 245 250 251 257 264 270 273 275 268 276 277 292 287 290 290 292 290 284 279 271 268 270 272 279 280 281 279 268 278 280 280 273
190 193 188 201 212 229 220 222 236 246 249 242 272 275 270 269 273 266 265 271 284 299 293 291 294 300 302 291 288 284 277 271 272 269 266 265 276 273 268 269 277 274 272
205 205 206 243 240 220 221 237 242 235 231 254 262 268 286 278 278 268 272 287 294 288 306 305 294 293 324 309 302 296 289 281 279 272 262 265 271 272 269 269 273 272 270
204 200 154 230 231 229 231 233 233 234 239 266 276 285 288 285 282 280 280 280 280 288 303 298 282 290 311 314 317 310 308 296 285 279 277 266 271 269 263 257 263 258 256
198 205 210 247 227 233 224 222 239 250 303 256 285 273 299 278 281 285 278 288 294 289 285 297 287 284 298 308 312 319 316 308 308 300 285 267 259 262 254 245 258 259 253
203 222 243 245 220 226 213 249 276 287 342 264 258 279 301 273 277 275 283 280 281 274 284 291 282 275 288 298 300 305 306 294 298 297 293 271 263 286 265 244 247 249 250
215 233 233 218 214 233 230 248 294 324 229 259 301 319 297 272 242 270 278 281 271 271 280 280 279 278 284 295 300 311 304 291 282 298 295 297 272 266 262 235 237 242 251
202 195 228 221 238 258 238 262 306 21 292 293 274 270 270 278 285 290 297 291 300 296 285 281 271 273 283 290 301 303 298 288 279 278 293 300 295 272 275 263 255 246 245
181 212 209 283 287 306 182 207 328 324 303 282 283 286 293 295 293 298 300 302 301 295 289 285 289 284 285 290 295 293 286 282 280 284 282 292 296 285 271 275 254 249 243
Wind_Speed_850mb
38 35 31 29 26 24 22 19 16 14 12 13 13 13 12 12 10 8 7 6 4 4 3 3 2 4 6 7 8 7 5 4 5 5 7 7 7 7 3 4 7 11 13
39 35 32 27 25 22 20 19 16 14 13 12 11 10 10 9 8 8 6 6 6 7 7 6 6 7 8 9 10 12 12 10 9 7 8 9 11 11 10 7 4 9 13
36 38 33 28 25 22 19 16 14 14 12 11 9 8 7 6 6 6 6 6 8 9 9 9 10 9 10 12 12 12 13 14 14 14 14 14 16 12 11 11 8 11 10
32 39 32 27 23 19 16 15 13 11 9 7 6 5 4 4 5 7 7 9 11 12 13 13 14 14 14 16 16 15 15 15 17 19 19 17 18 19 12 11 12 13 12
37 37 32 28 24 21 18 15 12 9 6 4 2 2 3 4 5 6 7 9 11 13 14 14 15 16 16 17 18 19 19 18 18 23 25 18 15 24 17 13 12 15 17
37 36 32 27 24 22 19 15 11 9 7 6 4 3 2 3 4 6 7 9 10 10 11 10 11 12 14 15 15 16 18 22 22 24 28 24 19 14 17 14 12 16 17
37 37 35 30 26 23 19 15 14 12 9 6 4 3 3 3 5 7 10 15 17 15 15 14 14 12 9 7 10 13 14 18 23 28 32 30 27 24 20 22 21 17 20
37 35 34 29 24 22 19 18 16 12 9 7 6 5 4 5 8 9 13 19 21 19 16 14 13 11 9 7 4 3 5 11 18 27 32 37 32 28 26 22 27 28 26
31 26 32 27 24 21 20 19 17 14 10 7 4 4 4 3 7 12 13 17 23 23 18 17 14 11 6 2 6 7 5 4 4 15 27 39 35 32 29 28 25 25 26
32 27 31 32 28 24 23 20 15 11 6 3 1 1 3 1 2 10 10 14 20 24 18 27 18 12 6 4 5 4 6 11 11 4 15 35 37 23 30 34 29 32 29
44 41 38 38 34 32 26 17 14 9 6 5 3 2 3 4 8 11 11 14 15 20 21 24 18 13 7 7 7 3 8 12 15 3 6 20 24 23 32 32 29 33 33
56 51 43 41 41 41 29 19 10 10 8 3 1 2 2 5 8 5 9 15 9 17 19 21 19 19 17 19 24 22 21 15 18 12 1 6 12 19 22 22 24 28 35
51 52 51 42 42 40 33 22 14 13 10 11 9 9 5 3 4 4 13 19 12 18 25 23 21 19 14 21 35 39 26 24 18 19 9 7 13 15 17 21 27 34 41
64 59 58 48 43 37 31 24 13 14 15 16 18 11 10 8 7 11 17 23 22 24 21 33 33 28 28 25 32 46 23 16 22 28 31 28 27 28 29 31 37 41 40
73 62 61 55 47 39 37 25 17 19 21 18 23 15 19 17 16 24 25 25 30 23 29 31 27 22 24 26 38 36 20 20 26 24 24 26 36 41 43 48 46 31 26
70 74 60 59 51 40 34 27 22 18 17 17 18 20 26 26 29 32 26 26 23 34 33 31 26 32 33 37 36 29 31 35 36 40 36 32 33 30 31 32 32 28 32
68 71 55 60 54 52 41 39 38 37 29 25 26 29 28 30 36 39 31 26 19 18 28 35 39 36 41 40 37 33 38 42 41 36 35 42 43 46 40 33 29 30 30
49 63 55 54 55 57 46 48 47 38 31 31 27 37 35 34 36 39 33 25 27 26 33 29 34 41 50 48 45 48 46 51 48 48 50 45 43 50 51 41 37 32 38
53 54 52 41 43 41 48 42 39 32 33 29 25 30 31 35 33 38 35 30 30 31 36 39 40 42 50 49 45 48 51 56 59 54 58 52 45 39 37 43 41 41 40
44 54 35 36 36 45 41 34 25 27 28 23 24 30 30 45 41 35 34 34 34 31 30 33 40 26 37 46 49 49 49 50 56 62 64 59 61 62 53 47 49 43 39
51 53 54 22 53 45 37 33 26 22 26 28 23 45 40 49 48 37 39 38 36 38 34 36 36 30 32 32 46 52 56 58 51 53 59 68 65 59 61 53 48 43 43
62 60 45 17 42 45 38 36 26 23 33 51 48 29 36 39 38 37 38 39 44 43 37 43 42 38 36 34 40 50 48 58 52 29 22 30 45 57 56 50 52 43 42
44 32 24 14 38 39 38 27 20 21 4 25 23 33 47 36 40 38 39 42 45 43 47 47 51 43 36 39 34 40 29 23 46 58 44 39 28 24 33 49 44 38 36
27 20 14 22 22 26 20 16 17 26 10 12 18 14 22 20 27 37 41 42 41 41 50 47 51 47 43 47 45 43 41 45 39 47 50 42 35 23 23 29 41 38 35
26 21 10 21 22 25 17 5 9 4 8 14 22 23 31 32 38 43 45 34 39 37 45 41 44 48 51 50 49 49 53 47 44 42 58 53 40 33 33 30 35 42 37
24 12 8 13 13 11 14 4 4 12 16 27 33 42 40 40 51 55 59 58 48 45 46 50 53 52 54 52 51 50 49 45 45 42 44 50 49 42 33 35 48 39 42
Wind_Direction_850mb
188 180 169 167 166 166 162 158 156 155 155 153 161 157 160 161 169 181 184 198 217 236 238 211 231 256 257 248 237 238 231 215 221 182 157 155 137 125 140 182 158 138 137
175 178 171 169 169 165 162 162 159 156 152 151 152 150 156 160 170 184 204 220 237 255 268 272 260 258 260 261 247 237 233 225 212 214 193 186 164 157 170 214 273 176 160
185 178 175 170 165 163 159 150 150 153 156 155 149 156 158 167 185 207 225 237 253 258 258 261 262 254 251 251 250 245 236 225 220 206 189 181 186 179 183 194 223 229 188
185 180 174 167 166 164 164 165 164 168 168 165 167 172 199 220 240 247 255 266 271 271 273 271 269 263 260 254 251 248 240 227 217 206 190 197 221 213 208 191 205 219 223
178 177 174 173 174 174 174 174 177 178 177 182 194 203 230 249 254 264 275 279 286 289 285 282 278 275 263 255 251 248 245 236 220 211 206 215 222 219 219 211 202 216 225
184 181 181 179 177 178 179 181 179 171 155 137 120 95 75 46 19 7 2 359 347 331 317 310 297 282 277 272 263 251 237 231 224 217 207 208 204 242 242 229 228 231 232
188 186 188 182 181 180 178 179 170 159 149 142 123 101 78 56 55 45 52 23 2 346 337 336 332 329 325 299 271 264 255 237 222 218 207 208 223 213 255 255 256 259 241
192 187 187 186 186 184 180 175 167 160 147 128 123 124 123 111 82 69 55 26 15 4 350 340 332 324 322 332 358 5 292 249 230 219 216 209 226 213 240 263 264 260 256
184 193 196 197 192 188 183 174 165 158 151 148 139 170 170 130 95 75 36 33 26 15 15 15 3 347 333 95 76 36 11 316 239 227 223 211 223 221 229 249 267 271 262
193 188 185 191 191 187 179 169 167 161 151 108 318 188 210 245 72 39 34 29 26 14 20 22 16 27 32 87 3 42 40 30 357 308 209 207 216 230 226 233 250 267 271
200 199 197 195 185 177 171 172 172 173 155 83 154 306 244 320 339 359 14 11 4 10 4 4 7 15 356 324 342 283 327 347 356 340 200 210 221 221 225 233 239 251 263
205 203 206 201 188 177 183 180 185 190 189 145 278 216 184 312 337 13 343 346 326 346 340 334 350 340 331 330 323 316 290 301 340 338 289 185 212 221 228 242 253 258 264
214 207 205 202 193 191 191 188 201 212 211 220 225 225 218 253 311 256 309 319 316 312 324 319 322 313 291 310 323 334 293 275 312 308 297 222 238 247 272 274 273 275 277
219 219 208 203 203 200 196 195 212 212 228 230 232 225 231 237 268 298 290 291 288 290 302 303 297 292 285 300 312 316 296 284 298 294 291 282 272 274 281 285 288 289 288
217 225 217 204 204 206 201 195 205 211 222 237 239 233 238 240 274 280 274 272 282 287 289 289 307 286 279 290 301 305 290 287 288 295 306 295 281 282 287 289 287 286 295
221 222 224 210 212 203 206 202 207 212 208 239 260 285 281 261 276 285 262 289 269 283 275 285 292 286 282 289 292 289 292 292 287 276 284 293 293 292 300 303 284 274 284
233 223 218 209 202 198 194 200 210 224 234 248 263 273 278 276 277 284 272 282 273 259 271 285 280 287 290 294 280 273 276 279 284 285 279 280 285 280 287 289 302 270 283
227 200 192 194 199 205 207 223 228 234 239 245 250 251 257 264 270 273 275 268 276 277 292 287 290 290 292 290 284 279 271 268 270 272 279 280 281 279 268 278 280 280 273
190 193 188 201 212 229 220 222 236 246 249 242 272 275 270 269 273 266 265 271 284 299 293 291 294 300 302 291 288 284 277 271 272 269 266 265 276 273 268 269 277 274 272
205 205 206 243 240 220 221 237 242 235 231 254 262 268 286 278 278 268 272 287 294 288 306 305 294 293 324 309 302 296 289 281 279 272 262 265 271 272 269 269 273 272 270
204 200 154 230 231 229 231 233 233 234 239 266 276 285 288 285 282 280 280 280 280 288 303 298 282 290 311 314 317 310 308 296 285 279 277 266 271 269 263 257 263 258 256
198 205 210 247 227 233 224 222 239 250 303 256 285 273 299 278 281 285 278 288 294 289 285 297 287 284 298 308 312 319 316 308 308 300 285 267 259 262 254 245 258 259 253
203 222 243 245 220 226 213 249 276 287 342 264 258 279 301 273 277 275 283 280 281 274 284 291 282 275 288 298 300 305 306 294 298 297 293 271 263 286 265 244 247 249 250
215 233 233 218 214 233 230 248 294 324 229 259 301 319 297 272 242 270 278 281 271 271 280 280 279 278 284 295 300 311 304 291 282 298 295 297 272 266 262 235 237 242 251
202 195 228 221 238 258 238 262 306 21 292 293 274 270 270 278 285 290 297 291 300 296 285 281 271 273 283 290 301 303 298 288 279 278 293 300 295 272 275 263 255 246 245
181 212 209 283 287 306 182 207 328 324 303 282 283 286 293 295 293 298 300 302 301 295 289 285 289 284 285 290 295 293 286 282 280 284 282 292 296 285 271 275 254 249 243